Stations météo

Publicité
Gourdon, France (7535): Température de l'air & dewpoint: 13.10.2017 21:00:00 - 19.10.2017 21:00:00 (CEST)Gourdon, France (7535): Température de l'air 5cm: 13.10.2017 21:00:00 - 19.10.2017 21:00:00 (CEST)Gourdon, France (7535): Température de l'air -20cm & Température de l'air -100cm: 13.10.2017 21:00:00 - 19.10.2017 21:00:00 (CEST)Gourdon, France (7535): Vitesse du vent & gusts: 13.10.2017 21:00:00 - 19.10.2017 21:00:00 (CEST)Gourdon, France (7535): Direction du vent: 13.10.2017 21:00:00 - 19.10.2017 21:00:00 (CEST)Gourdon, France (7535): reduced air pressure: 13.10.2017 21:00:00 - 19.10.2017 21:00:00 (CEST)Gourdon, France (7535): visibility: 13.10.2017 21:00:00 - 19.10.2017 21:00:00 (CEST)Gourdon, France (7535): Ensoleillement: 13.10.2017 21:00:00 - 19.10.2017 21:00:00 (CEST)Gourdon, France (7535): Quantités de précipitations: 13.10.2017 21:00:00 - 19.10.2017 21:00:00 (CEST)
Date & Time tt [°C] td [°C] tt 5cm [°C] tt -20cm [°C] tt -100cm [°C] ff [km/h] ff [knt] fx [km/h] fx [knt] dd ppp [hPa] vv [km] sd [min] rr [mm]
19.10.2017 21:00:00 13,5 12,7 12,1 17,4 17,4 6 3 11 6 SSE 1012,8 15 0 0,0
19.10.2017 20:00:00 14,5 13,4 12,9 17,4 17,4 5 3 11 6 SE 1012,8 20 0 0,0
19.10.2017 19:00:00 15,6 13,8 14,3 17,3 17,3 6 3 14 8 SSE 1012,2 20 0 0,0
19.10.2017 18:00:00 17,6 13,7 18,5 17,3 17,3 7 4 12 7 SSE 1011,2 20 49 0,0
19.10.2017 17:00:00 16,9 14,0 18,7 17,2 17,3 5 3 14 7 S 1011,1 20 8 0,0
19.10.2017 16:00:00 16,8 14,3 17,8 17,1 17,4 9 5 15 8 SE 1011,1 20 7 0,0
19.10.2017 15:00:00 15,8 14,7 15,7 17,0 17,4 4 2 15 8 SSE 1011,5 20 0 0,2
19.10.2017 14:00:00 15,4 14,4 15,6 17,0 17,4 6 3 14 8 S 1011,7 20 0 0,8
19.10.2017 13:00:00 15,1 14,5 15,6 17,0 17,4 9 5 19 11 S 1012,1 2,8 0 0,6
19.10.2017 12:00:00 14,7 14,4 14,9 17,0 17,5 3 2 9 5 S 1012,0 8 0 0,8
19.10.2017 11:00:00 14,7 14,2 15,1 17,0 17,4 2 1 8 4 WNW 1011,6 0,5 0 0,0
19.10.2017 10:00:00 14,7 14,4 14,3 17,0 17,4 4 2 9 5 SW 1011,3 1,8 0 0,0
19.10.2017 09:00:00 14,4 14,1 14,1 17,1 17,5 3 2 9 5 SW 1011,0 1,9 0 3,0
19.10.2017 08:00:00 14,4 13,8 14,1 17,1 17,5 2 1 11 6 SSW 1010,6 15 0 0,0
19.10.2017 07:00:00 14,4 13,6 14,0 17,2 17,5 3 2 8 4 SW 1010,3 19 0 0,0
19.10.2017 06:00:00 14,5 13,7 13,5 17,2 17,5 3 2 10 6 SSW 1010,1 18 0 0,0
19.10.2017 05:00:00 14,7 13,6 14,1 17,3 17,5 5 3 9 5 S 1009,6 19 0 0,0
19.10.2017 04:00:00 14,7 13,7 13,8 17,4 17,5 5 3 9 5 SE 1009,9 20 0 0,0
19.10.2017 03:00:00 14,6 13,8 13,7 17,4 17,5 4 2 11 6 S 1009,8 19 0 0,0
19.10.2017 02:00:00 14,5 13,5 11,4 17,5 17,5 3 2 8 4 ESE 1009,5 18 0 0,0
19.10.2017 01:00:00 16,0 13,5 13,6 17,6 17,5 0 0 17 9 N 1009,1 20 0 0,0
19.10.2017 00:00:00 18,8 13,4 17,4 17,7 17,4 12 7 24 13 SSE 1008,6 20 0 0,0
18.10.2017 23:00:00 18,4 13,5 16,9 17,7 17,4 10 5 27 15 SE 1008,8 20 0 0,0
18.10.2017 22:00:00 18,7 13,1 16,8 17,7 17,3 16 9 26 14 SE 1008,9 20 0 0,0
18.10.2017 21:00:00 18,3 14,4 16,5 17,7 17,3 9 5 17 9 ENE 1009,6 20 0 0,0
18.10.2017 20:00:00 18,0 14,5 16,6 17,7 17,3 3 2 28 15 NE 1009,3 20 0 0,0
18.10.2017 19:00:00 21,5 13,7 20,6 17,6 17,2 16 9 38 20 SE 1008,2 20 0 0,0
18.10.2017 18:00:00 22,4 13,5 21,6 17,5 17,2 17 9 38 20 SE 1007,5 20 6 0,0
18.10.2017 17:00:00 24,1 13,3 25,2 17,3 17,2 16 9 36 19 SE 1007,9 20 34 0,0
18.10.2017 16:00:00 25,1 13,6 25,4 17,1 17,1 17 9 39 21 SE 1008,2 20 53 0,0
18.10.2017 15:00:00 24,0 13,8 24,9 16,9 17,1 20 11 37 20 ESE 1008,4 20 38 0,0
18.10.2017 14:00:00 23,8 13,6 25,9 16,6 17,1 22 12 38 20 SE 1009,7 20 57 0,0
18.10.2017 13:00:00 23,1 13,6 24,1 16,5 17,2 19 10 35 19 SSE 1011,0 20 46 0,0
18.10.2017 12:00:00 22,2 13,8 22,0 16,4 17,2 12 6 28 15 SSE 1011,6 20 39 0,0
18.10.2017 11:00:00 19,8 13,5 19,4 16,4 17,2 9 5 21 11 SE 1012,7 20 20 0,0
18.10.2017 10:00:00 17,5 12,4 15,4 16,4 17,3 7 4 16 8 SE 1013,1 20 14 0,0
18.10.2017 09:00:00 15,4 11,8 11,8 16,5 17,3 6 4 16 8 ESE 1013,5 20 0 0,0
18.10.2017 08:00:00 15,1 11,5 13,5 16,5 17,3 8 4 18 10 ESE 1013,5 20 0 0,0
18.10.2017 07:00:00 15,5 11,9 13,8 16,6 17,4 9 5 19 10 SE 1014,0 20 0 0,0
18.10.2017 06:00:00 14,3 11,6 11,9 16,8 17,4 11 6 18 10 ESE 1014,4 20 0 0,0
18.10.2017 05:00:00 13,9 11,4 10,0 16,8 17,4 5 3 9 5 SE 1015,0 20 0 0,0
18.10.2017 04:00:00 13,8 11,1 10,1 17,0 17,4 3 2 17 9 SSE 1015,4 20 0 0,0
18.10.2017 03:00:00 14,1 11,1 10,3 17,1 17,5 6 3 16 9 SE 1015,9 20 0 0,0
18.10.2017 02:00:00 14,6 11,2 11,5 17,2 17,4 6 3 13 7 ESE 1016,1 20 0 0,0
18.10.2017 01:00:00 15,1 11,1 12,8 17,3 17,4 6 3 19 11 SE 1016,5 20 0 0,0
18.10.2017 00:00:00 15,6 11,2 13,8 17,4 17,4 9 5 31 17 ESE 1017,0 20 0 0,0
17.10.2017 23:00:00 16,4 11,1 15,0 17,5 17,4 16 9 32 17 SE 1016,8 20 0 0,0
17.10.2017 22:00:00 16,9 11,2 15,5 17,5 17,3 15 8 33 18 SE 1016,8 20 0 0,0
17.10.2017 21:00:00 17,8 10,9 15,9 17,6 17,3 16 9 29 15 SE 1016,8 20 0 0,0
17.10.2017 20:00:00 18,2 11,3 16,0 17,6 17,2 9 5 24 13 SE 1016,9 20 0 0,0
17.10.2017 19:00:00 20,8 10,6 19,1 17,5 17,2 13 7 24 13 SSE 1016,4 20 2 0,0
17.10.2017 18:00:00 22,8 9,9 23,8 17,4 17,2 16 8 34 19 S 1016,2 20 56 0,0
17.10.2017 17:00:00 24,0 10,6 27,8 17,2 17,1 19 10 33 18 S 1016,5 20 60 0,0
17.10.2017 16:00:00 24,3 11,6 28,4 16,9 17,1 19 11 39 21 SSE 1016,6 20 60 0,0
17.10.2017 15:00:00 23,7 11,7 28,2 16,7 17,1 17 9 34 18 S 1017,3 20 60 0,0
17.10.2017 14:00:00 23,3 12,3 26,4 16,5 17,2 13 7 32 17 SSE 1018,4 20 60 0,0
17.10.2017 13:00:00 21,3 12,2 25,3 16,4 17,2 18 10 41 22 SE 1019,3 20 60 0,0
17.10.2017 12:00:00 19,8 11,6 23,4 16,4 17,2 19 11 37 20 SSE 1019,9 20 60 0,0
17.10.2017 11:00:00 18,1 11,9 18,8 16,4 17,3 14 8 32 17 SE 1020,7 20 60 0,0
17.10.2017 10:00:00 15,5 10,7 14,6 16,5 17,3 17 9 29 16 SE 1021,2 20 60 0,0
17.10.2017 09:00:00 13,4 10,2 11,9 16,6 17,4 13 7 23 13 ESE 1021,5 20 22 0,0
17.10.2017 08:00:00 13,1 10,1 12,0 16,8 17,4 13 7 24 13 ESE 1021,5 20 0 0,0
17.10.2017 07:00:00 13,3 10,3 11,9 16,8 17,4 14 8 25 13 ESE 1021,8 20 0 0,0
17.10.2017 06:00:00 13,3 10,5 11,8 17,0 17,4 10 5 25 14 SE 1022,4 20 0 0,0
17.10.2017 05:00:00 14,1 10,7 12,4 17,1 17,4 14 8 24 13 SE 1022,5 20 0 0,0
17.10.2017 04:00:00 13,9 10,9 12,6 17,2 17,5 11 6 22 12 SE 1023,2 20 0 0,0
17.10.2017 03:00:00 14,2 11,0 12,8 17,3 17,4 12 7 22 12 ESE 1023,8 20 0 0,0
17.10.2017 02:00:00 14,5 11,5 13,0 17,4 17,4 11 6 18 10 SE 1024,2 20 0 0,0
17.10.2017 01:00:00 15,7 11,7 12,8 17,5 17,4 9 5 16 9 SE 1024,4 20 0 0,0
17.10.2017 00:00:00 16,2 11,6 14,1 17,6 17,4 8 4 19 11 SE 1024,3 20 0 0,0
16.10.2017 23:00:00 17,2 11,9 15,2 17,7 17,3 11 6 18 10 SSE 1024,0 20 0 0,0
16.10.2017 22:00:00 18,7 12,2 16,5 17,8 17,3 9 5 24 13 SSE 1023,6 20 0 0,0
16.10.2017 21:00:00 19,4 12,9 16,6 17,8 17,2 13 7 24 13 SSE 1023,2 20 0 0,0
16.10.2017 20:00:00 20,2 13,4 18,0 17,8 17,2 11 6 19 10 SE 1022,9 20 0 0,0
16.10.2017 19:00:00 23,0 12,9 19,2 17,7 17,1 6 3 14 8 SE 1022,5 20 8 0,0
16.10.2017 18:00:00 25,7 12,2 28,1 17,5 17,1 9 5 14 8 SSW 1022,1 20 57 0,0
16.10.2017 17:00:00 26,3 12,7 30,6 17,3 17,0 9 5 26 14 S 1021,9 20 60 0,0
16.10.2017 16:00:00 26,4 13,2 30,4 17,0 17,0 12 6 27 15 SSE 1021,9 20 60 0,0
16.10.2017 15:00:00 26,0 12,8 30,5 16,8 17,0 11 6 32 17 SSE 1022,4 20 60 0,0
16.10.2017 14:00:00 24,9 12,8 29,1 16,6 17,0 16 8 33 18 SSE 1022,9 20 60 0,0
16.10.2017 13:00:00 23,6 13,2 26,7 16,4 17,1 13 7 36 19 SSE 1023,4 20 60 0,0
16.10.2017 12:00:00 21,6 12,4 24,1 16,4 17,1 17 9 38 21 SSE 1023,6 20 60 0,0
16.10.2017 11:00:00 19,8 11,8 22,3 16,4 17,1 20 11 39 21 SSE 1023,6 20 60 0,0
16.10.2017 10:00:00 18,4 12,2 17,0 16,5 17,1 11 6 22 12 SSE 1023,6 20 60 0,0
16.10.2017 09:00:00 15,3 11,5 12,7 16,6 17,2 10 5 16 9 SE 1023,3 20 25 0,0
16.10.2017 08:00:00 14,5 11,5 12,7 16,7 17,2 11 6 19 10 SE 1023,0 20 0 0,0
16.10.2017 07:00:00 15,2 11,8 13,3 16,8 17,2 12 6 19 10 SE 1022,7 20 0 0,0
16.10.2017 06:00:00 15,6 12,3 13,9 16,9 17,2 13 7 25 13 SE 1022,4 20 0 0,0
16.10.2017 05:00:00 16,1 12,8 14,8 16,9 17,2 13 7 27 15 SE 1022,6 20 0 0,0
16.10.2017 04:00:00 16,4 13,1 14,9 17,0 17,2 16 9 29 16 SE 1022,8 20 0 0,0
16.10.2017 03:00:00 16,5 13,0 14,8 17,1 17,2 14 7 27 15 SE 1023,3 20 0 0,0
16.10.2017 02:00:00 16,3 12,8 14,4 17,2 17,2 12 6 20 11 SE 1023,8 20 0 0,0
16.10.2017 01:00:00 16,5 12,8 14,6 17,3 17,2 8 5 29 16 SE 1024,3 20 0 0,0
16.10.2017 00:00:00 17,2 12,9 15,9 17,4 17,1 16 9 29 15 SE 1024,2 20 0 0,0
15.10.2017 23:00:00 17,8 13,3 16,4 17,4 17,0 17 9 27 15 SE 1024,3 20 0 0,0
15.10.2017 22:00:00 18,6 13,5 16,8 17,5 17,0 16 9 32 18 SE 1024,3 20 0 0,0
15.10.2017 21:00:00 19,9 13,6 18,6 17,5 16,9 18 10 34 18 SE 1023,9 20 0 0,0
15.10.2017 20:00:00 20,8 14,0 18,8 17,4 16,8 14 7 19 11 SE 1023,7 20 0 0,0
15.10.2017 19:00:00 22,5 14,6 20,7 17,3 16,8 13 7 24 13 SE 1022,8 20 10 0,0
15.10.2017 18:00:00 24,8 14,6 27,1 17,1 16,7 16 9 28 15 SE 1022,5 20 58 0,0
15.10.2017 17:00:00 25,8 14,9 29,8 16,9 16,7 13 7 26 14 SE 1022,3 20 60 0,0
15.10.2017 16:00:00 26,0 14,8 30,2 16,6 16,7 13 7 28 15 SE 1022,7 20 60 0,0
15.10.2017 15:00:00 25,4 14,8 29,9 16,3 16,7 16 9 34 18 SE 1022,9 20 60 0,0
15.10.2017 14:00:00 24,8 14,9 28,0 16,1 16,7 16 8 34 18 SSE 1023,6 20 60 0,0
15.10.2017 13:00:00 23,0 14,6 26,0 16,0 16,8 19 10 37 20 SSE 1024,4 20 60 0,0
15.10.2017 12:00:00 21,5 14,4 24,3 15,9 16,8 21 12 37 20 SSE 1024,9 20 60 0,0
15.10.2017 11:00:00 20,2 14,3 21,4 15,9 16,8 15 8 34 18 SSE 1025,1 20 60 0,0
15.10.2017 10:00:00 17,0 13,5 16,7 15,9 16,8 11 6 18 10 SE 1025,4 20 60 0,0
15.10.2017 09:00:00 14,6 12,6 9,8 16,1 16,9 2 1 6 4 SE 1025,4 20 28 0,0
15.10.2017 08:00:00 13,4 12,0 8,6 16,2 17,0 5 3 10 5 SE 1025,0 20 0 0,0
15.10.2017 07:00:00 13,6 11,8 9,5 16,3 17,0 0 0 13 7 N 1024,9 20 0 0,0
15.10.2017 06:00:00 13,7 11,7 11,0 16,4 17,0 6 3 12 7 ESE 1024,6 20 0 0,0
15.10.2017 05:00:00 13,7 11,4 11,3 16,5 17,0 5 3 13 7 ESE 1024,4 20 0 0,0
15.10.2017 04:00:00 13,9 11,2 11,6 16,6 17,0 6 3 14 8 ESE 1024,6 20 0 0,0
15.10.2017 03:00:00 14,2 10,8 11,4 16,7 17,0 6 4 16 8 ESE 1024,9 20 0 0,0
15.10.2017 02:00:00 14,7 11,3 12,5 16,8 17,0 8 4 16 9 ESE 1024,8 20 0 0,0
15.10.2017 01:00:00 14,7 11,7 12,9 16,9 17,0 8 5 19 10 SE 1025,1 20 0 0,0
15.10.2017 00:00:00 15,9 11,9 13,5 17,0 16,9 8 4 18 10 SSE 1025,1 20 0 0,0
14.10.2017 23:00:00 16,7 12,0 14,0 17,1 16,9 8 5 16 8 SSE 1024,7 20 0 0,0
14.10.2017 22:00:00 16,8 11,5 13,6 17,2 16,8 10 5 17 9 SE 1024,4 20 0 0,0
14.10.2017 21:00:00 16,0 10,7 13,1 17,3 16,8 10 5 11 6 SE 1024,3 20 0 0,0
14.10.2017 20:00:00 17,9 12,1 14,3 17,2 16,7 7 4 11 6 ESE 1023,8 20 0 0,0
14.10.2017 19:00:00 22,4 12,1 17,0 17,1 16,6 4 2 6 3 ESE 1023,0 20 9 0,0
14.10.2017 18:00:00 25,8 10,0 30,3 16,9 16,6 4 2 12 6 SSE 1022,9 20 60 0,0
14.10.2017 17:00:00 26,4 9,3 31,9 16,6 16,5 6 4 13 7 SE 1022,9 20 60 0,0
14.10.2017 16:00:00 26,6 9,4 32,5 16,3 16,5 8 4 16 8 SSE 1023,2 20 60 0,0
14.10.2017 15:00:00 26,2 9,9 32,9 16,0 16,5 7 4 15 8 S 1023,4 20 60 0,0
14.10.2017 14:00:00 23,1 13,6 30,9 15,7 16,6 4 2 8 5 N 1024,4 20 60 0,0
14.10.2017 13:00:00 20,6 13,8 26,4 15,6 16,6 3 2 9 5 N 1025,5 20 60 0,0
14.10.2017 12:00:00 18,3 12,7 24,0 15,5 16,6 5 3 8 5 WNW 1026,2 20 60 0,0
14.10.2017 11:00:00 15,6 12,2 17,6 15,6 16,7 0 0 2 1 N 1026,7 20 46 0,0
14.10.2017 10:00:00 12,0 10,6 10,5 15,7 16,8 0 0 5 3 N 1027,0 20 21 0,0
14.10.2017 09:00:00 9,7 8,6 6,2 15,9 16,8 0 0 0 0 N 1026,7 20 19 0,0
14.10.2017 08:00:00 9,8 8,6 6,2 16,0 16,8 0 0 5 3 N 1026,3 15 0 0,0
14.10.2017 07:00:00 10,6 9,0 7,6 16,1 16,9 2 1 10 5 W 1025,9 20 0 0,0
14.10.2017 06:00:00 11,0 8,9 7,9 16,2 16,9 8 4 11 6 ESE 1025,8 20 0 0,0
14.10.2017 05:00:00 11,5 10,6 7,7 16,4 16,9 0 0 11 6 N 1025,7 14 0 0,0
14.10.2017 04:00:00 11,7 8,4 9,0 16,5 16,9 8 4 11 6 ESE 1025,7 20 0 0,0
14.10.2017 03:00:00 14,8 8,5 8,6 16,6 16,9 5 3 11 6 E 1025,7 20 0 0,0
14.10.2017 02:00:00 11,8 9,7 8,6 16,8 16,9 3 2 9 5 E 1026,1 20 0 0,0
14.10.2017 01:00:00 12,3 10,0 9,4 16,9 16,8 0 0 6 3 N 1025,8 20 0 0,0
14.10.2017 00:00:00 13,3 10,5 10,5 17,0 16,8 0 0 5 3 N 1025,7 20 0 0,0
13.10.2017 23:00:00 13,9 11,6 10,6 17,1 16,7 3 1 8 4 ESE 1025,5 20 0 0,0
13.10.2017 22:00:00 14,6 11,9 11,7 17,2 16,6 7 4 12 6 ESE 1025,2 20 0 0,0
13.10.2017 21:00:00 18,7 12,2 16,1 17,2 16,6 8 4 13 7 ESE 1024,7 20 0 0,0

tt = Température de l'air
td = dewpoint
tt 5cm = Température de l'air 5cm
tt -20cm = Température de l'air -20cm
tt -100cm = Température de l'air -100cm
ff = Vitesse du vent
fx = gusts
dd = Direction du vent
ppp = reduced air pressure
vv = visibility
sd = Ensoleillement
rr = Quantités de précipitations

stations d'obs. à proximité